User: anonymous   Login
Location: Hac?musa Deresi
(39.1694°N, 32.2508°E)
Time: 07:39:46
(UTC+00:00)
Language:

Cosmos 2150 Rocket - Orbit

View from above orbital plane
View from above orbital plane
View from above satellite
View from above satellite

Ground track
Ground track

The orbit is defined by the following mean orbital elements,

1 21419U          26161.39860478 +.00000000 +00000-0 +52862-4 0 00008
2 21419  74.0402  55.9755 0041230 262.3076  97.3393 14.35274140    03
Epoch (UTC): 10 June 2026 09:33:59
Eccentricity: 0.0041230
inclination: 74.0402°
perigee height: 745 km
apogee height: 804 km
right ascension of ascending node: 55.9755°
argument of perigee: 262.3076°
revolutions per day: 14.35274140
mean anomaly at epoch: 97.3393°

The dashed part of the orbit path shows where the satellite is in the earth's shadow,  

DLR